Latest Weather Observations for Tarcoola

IDS60801

Issued at 10:32 am CDT Thursday 11 February 2016 (issued every 30 minutes, with the page automatically refreshed every 10 minutes)

About weather observations | Map of weather stations | Latest weather observations for SA | Other Formats
Station Details ID: 016098 Name: TARCOOLA AERO Lat: -30.71 Lon: 134.58 Height: 123.0 m
Data from the previous 72 hours. | See also: Recent months at Tarcoola
Date/Time
CDT
Temp
°C
App
Temp
°C
Dew
Point
Rel
Hum
%
Delta-T
°C
Wind Press
QNH
hPa
Press
MSL
hPa
Rain
since 9 am
mm
Dir
 
Spd
km/h
Gust
km/h
Spd
kts
Gust
kts
11/10:30am 24.8 21.6 9.9 39 8.2 SSW 17 24 9 13 1015.7 1015.0 0.0
11/10:00am 22.9 20.2 11.6 49 6.4 SSW 17 24 9 13 1015.8 1015.1 0.0
11/09:30am 21.1 18.1 12.0 56 5.1 SSW 19 26 10 14 1015.8 1015.1 0.0
11/09:00am 19.4 16.1 12.7 65 3.8 SSW 22 26 12 14 1015.8 1015.1 0.0
11/08:30am 18.0 15.4 13.1 73 2.8 SSW 19 24 10 13 1015.8 1015.1 0.0
11/08:00am 16.9 15.4 13.2 79 2.1 SSW 13 19 7 10 1015.7 1015.0 0.0
11/07:30am 16.0 14.6 13.3 84 1.5 SW 13 17 7 9 1015.4 1014.7 0.0
11/07:00am 15.9 14.9 13.4 85 1.4 SW 11 15 6 8 1015.1 1014.4 0.0
11/06:30am 16.2 14.8 13.3 83 1.6 SW 13 17 7 9 1014.9 1014.2 0.0
11/06:00am 16.4 14.6 13.3 82 1.7 SW 15 20 8 11 1014.6 1013.9 0.0
11/05:30am 16.7 14.0 13.4 81 1.9 SSW 20 26 11 14 1014.3 1013.6 0.0
11/05:00am 17.0 14.4 13.3 79 2.1 SW 19 28 10 15 1014.2 1013.5 0.0
11/04:30am 17.5 14.8 12.8 74 2.6 SSW 19 26 10 14 1014.2 1013.5 0.0
11/04:00am 18.0 15.0 12.7 71 3.0 SW 20 28 11 15 1014.1 1013.4 0.0
11/03:30am 18.6 15.6 12.1 66 3.6 SW 19 28 10 15 1014.1 1013.4 0.0
11/03:00am 19.2 15.6 11.7 62 4.2 SW 22 28 12 15 1013.8 1013.0 0.0
11/02:30am 19.9 15.9 10.6 55 5.1 SW 22 30 12 16 1013.9 1013.1 0.0
11/02:00am 20.7 16.4 9.3 48 6.1 SW 22 30 12 16 1014.1 1013.4 0.0
11/01:30am 21.9 17.1 7.3 39 7.6 SW 22 28 12 15 1014.5 1013.8 0.0
11/01:00am 22.9 18.6 7.1 36 8.2 SW 19 24 10 13 1014.5 1013.8 0.0
11/12:30am 23.8 19.3 7.0 34 8.8 SSW 20 28 11 15 1014.5 1013.8 0.0
11/12:00am 24.7 20.3 7.4 33 9.1 SSW 20 28 11 15 1014.5 1013.8 0.0
 
Date/Time
CDT
Temp
°C
App
Temp
°C
Dew
Point
Rel
Hum
%
Delta-T
°C
Wind Press
QNH
hPa
Press
MSL
hPa
Rain
since 9 am
mm
Dir
 
Spd
km/h
Gust
km/h
Spd
kts
Gust
kts
10/11:30pm 25.5 20.6 7.1 31 9.7 SSW 22 32 12 17 1014.4 1013.7 0.0
10/11:00pm 26.6 21.3 6.6 28 10.5 SW 24 32 13 17 1014.1 1013.4 0.0
10/10:30pm 28.2 21.1 5.7 24 11.8 SSW 32 41 17 22 1013.9 1013.1 0.0
10/10:00pm 29.4 23.4 5.5 22 12.6 SSW 26 35 14 19 1013.5 1012.7 0.0
10/09:30pm 30.2 25.2 4.8 20 13.3 SW 20 30 11 16 1013.1 1012.3 0.0
10/09:00pm 31.3 25.5 4.2 18 14.1 SSW 24 32 13 17 1012.9 1012.1 0.0
10/08:30pm 32.6 25.9 3.5 16 15.1 SSW 28 37 15 20 1012.7 1011.9 0.0
10/08:00pm 34.0 26.9 3.7 15 15.9 SSW 30 43 16 23 1012.3 1011.5 0.0
10/07:30pm 35.4 28.4 3.9 14 16.7 SSW 30 44 16 24 1011.6 1010.9 0.0
10/07:00pm 37.3 30.2 -0.9 9 19.0 SW 26 37 14 20 1011.2 1010.5 0.0
10/06:30pm 37.9 31.1 -2.0 8 19.6 SW 24 37 13 20 1011.1 1010.4 0.0
10/06:00pm 38.3 32.3 -1.7 8 19.8 SSW 20 33 11 18 1010.9 1010.2 0.0
10/05:30pm 38.7 32.3 -1.4 8 19.9 WSW 22 35 12 19 1010.8 1010.1 0.0
10/05:00pm 38.8 32.5 -1.3 8 20.0 WSW 22 32 12 17 1011.0 1010.3 0.0
10/04:30pm 38.4 32.5 1.4 10 19.2 W 22 35 12 19 1011.1 1010.4 0.0
10/04:00pm 38.6 33.3 2.9 11 18.9 WSW 20 39 11 21 1011.4 1010.7 0.0
10/03:30pm 38.5 33.4 4.1 12 18.6 WSW 20 32 11 17 1011.6 1010.9 0.0
10/03:00pm 38.0 34.4 4.8 13 18.1 W 13 24 7 13 1012.2 1011.4 0.0
10/02:30pm 36.9 33.1 4.0 13 17.6 SW 13 22 7 12 1012.6 1011.8 0.0
10/02:00pm 36.7 32.7 2.7 12 17.8 SW 13 22 7 12 1013.0 1012.2 0.0
10/01:30pm 35.9 32.8 8.7 19 15.6 WSW 15 22 8 12 1013.2 1012.4 0.0
10/01:00pm 34.3 31.4 9.5 22 14.3 SW 15 24 8 13 1013.5 1012.7 0.0
10/12:30pm 33.0 30.5 10.9 26 12.9 SW 15 20 8 11 1013.9 1013.1 0.0
10/12:00pm 31.0 29.4 11.4 30 11.4 SW 11 17 6 9 1014.3 1013.6 0.0
10/11:30am 28.4 26.8 11.5 35 9.8 SW 11 17 6 9 1014.6 1013.9 0.0
10/11:00am 26.2 25.0 11.5 40 8.4 SW 9 15 5 8 1014.8 1014.1 0.0
10/10:30am 23.9 22.5 12.2 48 6.7 SW 11 15 6 8 1015.0 1014.3 0.0
10/10:00am 22.6 21.4 12.8 54 5.6 SW 11 17 6 9 1015.4 1014.7 0.0
10/09:30am 21.2 18.9 13.1 60 4.6 SSW 17 20 9 11 1015.6 1014.9 0.0
10/09:00am 19.4 17.9 13.1 67 3.6 SSW 13 15 7 8 1015.4 1014.7 0.0
10/08:30am 18.0 15.7 12.9 72 2.9 SW 17 22 9 12 1015.4 1014.7 0.0
10/08:00am 17.2 15.5 12.5 74 2.6 SW 13 17 7 9 1015.3 1014.6 0.0
10/07:30am 16.6 14.9 12.4 76 2.3 SW 13 15 7 8 1015.0 1014.3 0.0
10/07:00am 16.5 15.1 12.3 76 2.3 SW 11 17 6 9 1014.8 1014.1 0.0
10/06:30am 16.7 15.3 12.3 75 2.4 SW 11 13 6 7 1014.7 1014.0 0.0
10/06:00am 17.1 14.9 12.2 73 2.7 SW 15 19 8 10 1014.5 1013.8 0.0
10/05:30am 17.5 15.3 12.0 70 3.0 SW 15 17 8 9 1014.3 1013.6 0.0
10/05:00am 17.9 16.3 11.5 66 3.5 SW 11 15 6 8 1014.4 1013.7 0.0
10/04:30am 18.4 16.3 11.0 62 4.0 SW 13 17 7 9 1014.3 1013.6 0.0
10/04:00am 19.1 15.9 10.1 56 4.8 SW 17 22 9 12 1014.4 1013.7 0.0
10/03:30am 20.0 17.1 9.6 51 5.6 SSW 15 20 8 11 1014.4 1013.7 0.0
10/03:00am 20.6 17.9 8.9 47 6.2 SW 13 17 7 9 1014.5 1013.8 0.0
10/02:30am 21.4 17.8 8.3 43 6.9 SSW 17 26 9 14 1014.9 1014.2 0.0
10/02:00am 22.4 18.5 7.0 37 8.0 SSW 17 24 9 13 1015.3 1014.6 0.0
10/01:30am 23.4 19.0 4.9 30 9.3 SSW 17 22 9 12 1015.5 1014.8 0.0
10/01:00am 24.4 19.6 2.5 24 10.6 SSW 17 26 9 14 1015.3 1014.6 0.0
10/12:30am 25.4 19.8 0.1 19 11.8 SSW 19 26 10 14 1015.4 1014.7 0.0
10/12:00am 26.3 21.5 4.7 25 11.0 SSW 19 24 10 13 1015.5 1014.8 0.0
 
Date/Time
CDT
Temp
°C
App
Temp
°C
Dew
Point
Rel
Hum
%
Delta-T
°C
Wind Press
QNH
hPa
Press
MSL
hPa
Rain
since 9 am
mm
Dir
 
Spd
km/h
Gust
km/h
Spd
kts
Gust
kts
09/11:30pm 27.1 22.7 6.5 27 10.9 SSW 19 26 10 14 1015.4 1014.7 0.0
09/11:00pm 28.0 23.6 6.7 26 11.3 SSW 19 28 10 15 1015.3 1014.6 0.0
09/10:30pm 29.0 24.4 6.4 24 12.0 SSW 20 30 11 16 1015.1 1014.4 0.0
09/10:00pm 29.8 24.2 7.1 24 12.3 SSW 26 37 14 20 1014.9 1014.2 0.0
09/09:30pm 31.0 24.6 6.8 22 13.1 SSW 30 41 16 22 1014.5 1013.8 0.0
09/09:00pm 32.8 25.8 6.2 19 14.4 SSW 32 43 17 23 1014.1 1013.4 0.0
09/08:30pm 35.4 30.1 2.8 13 17.0 SSW 20 35 11 19 1013.7 1012.9 0.0
09/08:00pm 36.8 31.0 0.2 10 18.4 SSW 20 28 11 15 1013.4 1012.6 0.0
09/07:30pm 37.7 32.8 -0.6 9 19.2 S 15 26 8 14 1013.2 1012.4 0.0
09/07:00pm 38.4 32.8 0.0 9 19.5 SW 19 28 10 15 1013.1 1012.3 0.0
09/06:30pm 38.4 33.2 0.0 9 19.5 S 17 30 9 16 1013.1 1012.3 0.0
09/06:00pm 38.4 33.2 0.0 9 19.5 SSW 17 28 9 15 1013.2 1012.4 0.0
09/05:30pm 38.8 33.5 1.7 10 19.4 WSW 19 30 10 16 1013.2 1012.4 0.0
09/05:00pm 39.5 34.6 2.2 10 19.7 WSW 17 22 9 12 1013.4 1012.6 0.0
09/04:30pm 38.1 33.3 2.5 11 18.7 S 17 26 9 14 1013.8 1013.0 0.0
09/04:00pm 38.3 34.7 5.0 13 18.2 SW 13 22 7 12 1014.1 1013.4 0.0
09/03:30pm 38.1 35.0 3.8 12 18.4 NW 9 24 5 13 1014.6 1013.9 0.0
09/03:00pm 36.9 33.9 4.0 13 17.6 SSE 9 20 5 11 1015.1 1014.4 0.0
09/02:30pm 36.5 33.0 3.7 13 17.4 SE 11 17 6 9 1015.5 1014.8 0.0
09/02:00pm 36.5 34.4 6.6 16 16.6 WNW 7 13 4 7 1016.0 1015.3 0.0
09/01:30pm 35.4 33.1 7.5 18 15.6 NNE 9 13 5 7 1016.4 1015.7 0.0
09/01:00pm 34.7 32.6 8.4 20 14.9 NNE 9 15 5 8 1016.9 1016.2 0.0
09/12:30pm 33.7 32.0 8.3 21 14.3 E 7 13 4 7 1017.2 1016.5 0.0
09/12:00pm 32.6 30.2 8.8 23 13.4 ENE 11 19 6 10 1017.6 1016.9 0.0
09/11:30am 31.5 29.0 9.7 26 12.4 SSE 13 17 7 9 1017.9 1017.2 0.0
09/11:00am 29.9 27.8 9.9 29 11.3 SE 11 17 6 9 1018.3 1017.6 0.0
09/10:30am 28.4 26.4 10.1 32 10.3 SSE 11 17 6 9 1018.5 1017.8 0.0
09/10:00am 26.3 24.6 10.0 36 9.1 SE 9 15 5 8 1018.6 1017.9 0.0
09/09:30am 25.2 22.4 9.9 38 8.5 SE 15 19 8 10 1018.7 1018.0 0.0
09/09:00am 22.7 21.0 11.1 48 6.5 S 11 15 6 8 1018.7 1018.0 0.0
09/08:30am 20.8 19.6 11.7 56 5.1 SSW 9 13 5 7 1018.7 1018.0 0.0
09/08:00am 18.9 17.7 11.7 63 4.0 SW 9 13 5 7 1018.5 1017.8 0.0
09/07:30am 17.6 16.5 11.9 69 3.1 SW 9 11 5 6 1018.2 1017.5 0.0
09/07:00am 17.3 15.8 11.8 70 3.0 WSW 11 13 6 7 1017.7 1017.0 0.0
09/06:30am 17.8 16.6 11.6 67 3.4 SW 9 11 5 6 1017.4 1016.7 0.0
09/06:00am 18.1 16.5 11.7 66 3.5 SW 11 11 6 6 1017.3 1016.6 0.0
09/05:30am 18.4 16.9 11.9 66 3.6 SW 11 13 6 7 1017.1 1016.4 0.0
09/05:00am 19.0 17.9 11.8 63 4.0 SW 9 13 5 7 1017.1 1016.4 0.0
09/04:30am 19.8 18.3 11.8 60 4.5 SW 11 13 6 7 1017.1 1016.4 0.0
09/04:00am 20.3 19.2 12.0 59 4.7 SW 9 13 5 7 1017.1 1016.4 0.0
09/03:30am 20.9 19.8 11.8 56 5.1 SSW 9 13 5 7 1017.3 1016.6 0.0
09/03:00am 21.6 20.1 11.9 54 5.5 SSW 11 13 6 7 1017.5 1016.8 0.0
09/02:30am 22.3 20.5 12.0 52 5.8 SSW 13 15 7 8 1017.7 1017.0 0.0
09/02:00am 22.8 20.9 11.8 50 6.2 SSW 13 17 7 9 1018.0 1017.3 0.0
09/01:30am 23.4 21.1 11.8 48 6.6 SW 15 19 8 10 1018.1 1017.4 0.0
09/01:00am 24.3 21.0 11.6 45 7.2 SSW 20 26 11 14 1018.3 1017.6 0.0
09/12:30am 25.1 21.9 11.3 42 7.8 SSW 19 26 10 14 1018.4 1017.7 0.0
09/12:00am 25.8 22.6 11.2 40 8.3 SSW 19 24 10 13 1018.6 1017.9 0.0
 
Date/Time
CDT
Temp
°C
App
Temp
°C
Dew
Point
Rel
Hum
%
Delta-T
°C
Wind Press
QNH
hPa
Press
MSL
hPa
Rain
since 9 am
mm
Dir
 
Spd
km/h
Gust
km/h
Spd
kts
Gust
kts
08/11:30pm 26.7 23.3 11.2 38 8.8 SSW 20 28 11 15 1018.6 1017.9 0.0
08/11:00pm 27.7 24.2 10.9 35 9.6 SSW 20 28 11 15 1018.5 1017.8 0.0
08/10:30pm 28.5 24.8 10.2 32 10.3 SSW 20 30 11 16 1018.3 1017.6 0.0
08/10:00pm 29.9 24.5 9.4 28 11.5 SSW 28 44 15 24 1018.0 1017.3 0.0
08/09:30pm 31.1 26.3 8.8 25 12.5 SSW 24 35 13 19 1017.5 1016.8 0.0
08/09:00pm 32.7 28.6 4.5 17 14.8 S 15 24 8 13 1017.2 1016.5 0.0
08/08:30pm 34.0 28.7 2.8 14 16.1 SSE 20 28 11 15 1016.7 1016.0 0.0
08/08:00pm 35.0 29.8 3.5 14 16.5 S 20 30 11 16 1016.4 1015.7 0.0
08/07:30pm 35.8 31.3 4.2 14 16.8 SSE 17 30 9 16 1016.1 1015.4 0.0
08/07:00pm 36.1 31.1 4.4 14 17.0 SE 20 37 11 20 1016.0 1015.3 0.0
08/06:30pm 36.7 31.2 3.8 13 17.5 S 22 33 12 18 1016.0 1015.3 0.0
08/06:00pm 36.9 31.8 4.0 13 17.6 SSW 20 33 11 18 1016.1 1015.4 0.0
08/05:30pm 37.2 32.7 4.2 13 17.7 S 17 28 9 15 1016.3 1015.6 0.0
08/05:00pm 37.0 32.1 4.0 13 17.7 SSE 19 32 10 17 1016.5 1015.8 0.0
08/04:30pm 36.4 31.6 4.6 14 17.1 S 19 28 10 15 1016.7 1016.0 0.0
08/04:00pm 35.8 31.5 5.1 15 16.6 SSE 17 32 9 17 1017.0 1016.3 0.0
08/03:30pm 36.6 31.8 4.8 14 17.2 SE 19 32 10 17 1017.4 1016.7 0.0
08/03:00pm 35.6 30.9 5.0 15 16.5 SSW 19 28 10 15 1017.7 1017.0 0.0
08/02:30pm 35.5 31.7 5.8 16 16.2 S 15 26 8 14 1018.2 1017.5 0.0
08/02:00pm 33.9 30.0 5.4 17 15.3 SSE 15 26 8 14 1018.6 1017.9 0.0
08/01:30pm 34.0 29.8 3.7 15 15.8 SSE 15 26 8 14 1019.0 1018.3 0.0
08/01:00pm 32.8 29.6 6.9 20 14.2 S 13 24 7 13 1019.4 1018.7 0.0
08/12:30pm 32.0 28.2 7.6 22 13.4 S 17 24 9 13 1019.7 1019.0 0.0
08/12:00pm 30.9 27.2 8.0 24 12.6 SSE 17 24 9 13 1020.1 1019.4 0.0
08/11:30am 29.5 25.7 7.4 25 12.0 SSE 17 24 9 13 1020.5 1019.7 0.0
08/11:00am 28.0 25.3 8.8 30 10.6 S 13 20 7 11 1020.7 1019.9 0.0

Other Formats:

Comma delimited format used in spreadsheet applications
http://www.bom.gov.au/fwo/IDS60801/IDS60801.94655.axf

JavaScript Object Notation format (JSON) in row-major order
http://www.bom.gov.au/fwo/IDS60801/IDS60801.94655.json